Theta_e
291 292 294 295 297 298 298 301 297 301 302 306 312 314 319 322 322 321 322 323 325 326 327 329 330 328 326 327 328 331 331 334 334 336 335 334 333 334 336 334 331 332 332 332
289 292 292 291 297 299 300 301 302 303 304 313 315 317 318 320 320 320 321 323 324 326 328 329 328 326 326 327 327 330 332 332 333 332 332 332 333 333 335 334 333 332 333 331
285 291 290 289 297 299 301 304 304 301 308 314 312 313 317 319 321 321 322 323 325 326 328 329 328 327 326 327 328 328 331 331 332 332 332 332 333 332 334 334 332 332 332 333
287 289 281 297 304 303 302 306 307 308 310 312 312 315 316 318 319 323 323 325 326 328 330 330 328 326 328 327 326 327 331 329 330 329 329 330 330 330 333 334 333 333 333 333
286 286 290 296 301 301 301 302 307 307 309 310 312 317 316 319 320 322 327 328 328 331 332 331 328 327 326 326 325 326 328 328 329 330 330 331 332 332 333 332 330 331 333 333
288 283 286 297 303 307 307 298 308 310 310 310 311 306 310 318 320 322 326 332 329 331 333 331 329 328 326 325 324 326 328 329 330 331 332 332 335 335 335 335 335 334 331 331
286 285 290 299 300 308 295 297 310 311 311 311 310 313 317 319 321 324 326 329 332 332 331 331 330 328 325 325 323 327 329 331 332 333 332 335 337 336 337 334 334 332 331 331
290 286 284 299 301 297 301 310 310 310 311 312 314 316 318 319 320 322 324 327 331 331 332 332 330 327 325 326 326 327 329 330 333 335 333 335 337 338 336 334 332 331 329 329
291 287 295 301 301 304 306 307 309 310 312 313 315 316 318 320 321 323 324 326 330 331 333 331 329 327 326 328 327 327 329 333 333 334 334 336 335 335 333 334 331 329 328 326
292 294 296 300 304 305 307 307 310 312 313 314 314 316 318 321 323 324 326 325 329 332 332 330 329 328 329 328 326 326 329 333 333 332 333 334 333 334 332 331 330 329 327 325
292 295 299 300 302 303 306 308 309 311 313 313 314 315 317 319 323 326 326 327 329 331 332 331 329 328 329 327 326 327 330 332 333 333 333 333 332 328 331 326 323 329 330 329
290 298 298 298 302 305 305 307 309 309 311 314 314 314 317 318 321 324 327 329 328 332 334 332 330 328 327 327 327 329 328 330 331 331 332 331 329 325 298 303 300 299 301 324
297 302 302 303 305 305 305 308 309 310 312 313 315 315 316 316 319 319 328 328 329 329 332 333 331 328 327 327 326 329 328 329 328 326 330 330 328 327 325 312 299 299 301 306
302 303 300 302 301 305 307 308 310 311 312 313 314 316 317 316 318 320 324 329 330 330 330 333 332 329 328 327 326 329 329 312 328 326 330 330 329 330 328 326 324 322 305 309
303 303 304 305 306 306 307 308 307 309 310 311 313 314 315 315 316 318 322 326 332 330 328 330 332 330 330 327 327 328 327 326 326 326 327 324 330 329 329 328 326 324 316 308
302 302 303 304 303 304 305 306 305 307 309 310 311 312 313 316 318 318 320 323 326 329 331 329 331 333 331 328 328 328 329 314 317 326 323 325 324 325 326 327 327 325 322 319
299 299 302 302 303 304 305 306 307 307 308 310 311 312 312 314 316 318 318 322 326 331 333 334 333 334 332 329 330 327 328 326 315 324 323 323 323 324 323 323 326 325 325 321
304 304 305 304 304 304 304 305 307 308 308 310 311 312 312 313 313 318 319 322 330 332 331 334 329 330 335 330 331 327 327 327 325 323 324 322 323 323 324 324 323 323 324 319
305 304 304 304 304 304 304 303 304 306 308 310 311 312 312 313 314 315 320 320 325 323 325 332 310 326 337 330 325 328 327 328 326 324 324 316 321 322 323 324 323 323 323 320
304 304 304 304 305 305 303 304 305 307 307 309 310 311 312 312 314 314 317 319 324 321 324 327 332 328 333 325 308 330 329 329 329 325 324 324 323 322 322 313 322 323 323 323
304 305 304 304 304 305 305 304 303 303 304 305 306 307 309 314 314 314 315 315 321 321 320 314 321 317 321 312 319 329 330 330 331 328 326 324 325 323 322 322 321 322 323 323
305 304 304 304 304 304 305 304 304 304 304 304 304 305 306 307 309 312 317 313 315 301 316 320 319 299 307 296 328 329 330 331 330 332 329 327 325 326 325 323 323 322 323 324
305 305 304 304 304 304 305 305 305 304 303 302 302 302 302 303 305 305 304 310 312 303 311 320 297 290 291 317 326 330 331 331 330 330 331 330 328 325 327 326 325 325 324 323
305 305 305 305 306 304 304 304 304 304 304 303 302 303 302 300 302 303 305 301 296 297 306 310 304 291 288 316 319 327 329 331 332 330 329 311 329 329 327 328 328 327 326 319
307 305 305 304 303 303 305 305 305 304 305 304 302 303 302 303 300 299 301 302 295 300 306 302 296 291 312 317 317 321 326 329 330 328 330 331 330 330 329 330 329 330 331 329
306 305 306 305 304 304 304 304 302 302 302 301 302 301 301 302 301 300 299 296 298 295 301 305 309 311 317 318 317 321 328 328 327 330 325 331 331 333 334 333 333 333 333 332
305 300 305 305 304 305 304 303 303 300 300 300 300 301 300 300 299 298 294 297 296 295 296 298 302 304 309 310 315 319 320 325 314 328 329 328 328 328 327 331 332 332 331 330
Wind_Speed
19 10 15 23 28 31 28 24 22 21 11 17 14 12 15 15 16 17 17 16 15 14 14 13 13 12 11 10 10 8 9 11 8 9 6 7 5 3 1 4 5 7 6 5
17 12 15 25 28 24 30 27 27 26 15 12 16 14 14 13 17 16 16 16 16 14 15 14 13 12 11 10 10 8 14 11 8 9 8 8 6 5 3 3 5 6 5 4
12 7 9 19 23 22 27 23 27 18 10 23 14 11 16 14 16 14 15 15 15 14 13 12 12 11 10 10 10 8 13 9 8 9 11 9 8 7 5 4 4 4 6 6
4 11 6 10 14 22 23 23 21 8 13 17 17 16 18 17 14 5 15 14 14 13 13 13 12 12 10 11 10 9 13 12 9 10 9 9 8 7 6 4 4 6 5 6
2 4 16 12 13 14 12 8 20 18 19 17 15 21 16 13 12 10 9 12 13 13 13 12 12 12 11 11 10 11 10 11 11 11 9 7 6 8 6 5 4 3 5 5
1 3 6 8 21 29 17 12 17 15 16 12 7 10 7 11 11 10 10 3 14 15 14 13 11 12 10 11 10 11 11 12 11 14 11 6 7 6 5 5 5 5 6 6
3 1 8 19 29 25 4 4 9 15 13 13 12 9 4 7 8 8 8 6 15 15 14 13 12 12 11 11 10 10 11 11 11 13 11 9 6 6 5 6 6 6 7 6
3 4 5 19 14 11 7 5 11 12 11 11 8 8 8 7 7 7 8 8 16 14 14 13 13 12 12 11 10 10 11 11 14 14 10 8 10 5 9 6 8 7 8 7
6 3 6 14 7 12 11 11 13 12 11 10 10 9 7 6 5 6 6 7 8 14 15 14 14 13 12 11 11 11 11 10 13 10 11 10 7 9 8 6 7 7 7 7
1 5 10 12 13 12 16 15 16 11 11 11 9 9 8 7 4 5 5 7 9 15 16 14 14 14 11 13 12 12 11 10 13 10 12 11 7 5 8 8 8 7 7 5
4 8 9 9 16 16 9 12 13 13 11 8 9 9 10 9 10 7 4 5 8 11 15 16 15 14 13 14 13 10 11 10 10 8 10 9 7 3 5 6 2 8 8 9
1 7 5 8 10 13 9 7 7 8 10 8 8 8 11 10 10 10 11 6 7 8 15 16 15 14 14 14 13 11 11 9 9 9 8 8 7 5 12 10 12 13 6 10
6 8 8 7 7 8 10 9 6 8 7 9 10 9 9 10 10 13 8 6 9 9 10 16 16 15 15 14 14 13 12 11 9 8 10 9 8 8 6 4 9 11 11 13
11 12 11 8 7 10 9 9 10 6 7 7 9 10 12 11 11 11 13 14 6 9 12 14 16 16 15 15 15 14 12 14 9 9 10 9 9 9 9 7 6 5 7 5
12 7 9 9 13 11 9 8 10 9 8 8 9 9 11 13 11 11 11 13 13 7 10 14 16 16 16 16 15 15 13 10 10 11 8 11 9 9 9 11 9 8 6 6
10 6 8 11 11 11 13 14 10 10 9 9 8 10 11 11 12 11 11 13 12 11 10 9 11 16 16 16 14 13 13 13 13 9 9 10 9 10 9 9 11 11 10 9
11 11 9 10 9 9 13 13 15 15 15 15 11 10 10 10 11 12 13 13 12 11 8 13 4 12 16 16 15 12 11 12 12 10 11 9 10 9 9 9 10 11 12 13
2 6 7 9 10 8 9 12 14 16 14 13 13 10 10 9 10 10 12 14 14 14 15 14 15 13 9 16 16 12 12 12 11 12 9 10 10 9 9 9 10 11 10 13
7 5 5 8 10 9 9 10 10 11 12 12 14 14 9 9 9 10 11 13 8 12 13 13 16 13 11 9 16 13 12 13 13 12 11 10 8 11 10 10 10 9 10 10
10 13 7 12 10 10 8 10 11 12 13 11 11 15 12 8 9 10 9 10 7 6 9 13 12 14 15 15 17 8 14 14 14 14 13 12 11 11 11 12 12 10 10 10
11 14 12 8 14 11 13 9 7 9 12 15 16 16 15 17 12 9 7 6 9 11 11 8 11 11 10 12 11 9 10 13 11 14 14 14 11 11 12 12 12 11 10 10
9 10 9 7 8 11 9 10 11 12 15 17 16 15 15 14 17 18 14 17 12 14 11 9 9 9 10 17 10 10 10 8 12 8 13 13 14 10 12 13 12 12 11 10
8 9 10 11 10 6 11 9 11 14 14 15 16 16 14 12 11 12 13 17 14 20 14 10 8 9 11 11 11 10 9 10 8 8 8 12 13 14 10 12 13 11 11 12
5 7 9 8 11 8 9 10 11 12 13 14 13 15 13 11 11 10 11 15 18 19 14 12 13 8 6 8 10 9 9 9 11 9 11 12 12 12 14 11 10 13 13 8
6 3 4 8 9 7 10 12 10 12 12 12 12 11 13 9 10 11 11 12 17 16 14 15 14 9 7 9 8 9 9 9 8 10 9 11 10 9 10 8 11 7 7 10
4 5 3 8 7 6 7 8 8 9 9 10 9 11 10 9 10 10 11 13 14 16 14 13 14 15 14 11 10 9 5 8 9 9 10 10 9 10 3 1 1 1 1 3
3 1 4 6 6 6 4 5 7 8 8 9 9 10 10 12 12 11 12 13 13 13 13 13 14 15 15 16 17 11 8 7 7 3 5 7 9 5 3 7 5 4 6 8
Wind_Direction
256 255 304 301 285 224 224 202 223 236 159 209 176 159 120 126 140 141 145 155 151 155 154 157 158 154 161 165 160 173 132 121 127 136 158 140 140 155 20 76 56 123 107 106
281 212 272 287 276 266 220 199 221 240 158 124 98 103 123 144 141 151 152 157 154 160 157 158 160 159 161 159 153 168 124 137 144 160 155 139 150 147 152 128 120 101 120 113
248 193 323 272 236 241 211 203 214 227 161 127 143 118 151 155 150 156 155 151 161 161 159 154 160 159 160 151 152 165 127 145 158 144 144 155 164 156 153 141 115 128 121 110
8 60 262 245 246 251 206 196 209 163 164 140 114 90 56 44 28 79 156 159 156 157 153 151 158 150 161 151 160 172 152 153 164 155 148 141 157 158 157 153 150 129 140 128
204 200 298 320 0 337 267 79 14 40 73 60 81 93 56 22 17 2 347 156 153 153 150 149 157 149 164 159 170 174 164 149 160 123 132 129 122 116 129 133 123 143 131 134
62 255 226 19 350 319 298 93 11 39 50 46 20 119 60 356 346 347 333 242 148 150 145 149 157 152 164 162 180 178 165 162 155 137 144 154 123 129 145 142 133 141 135 86
275 219 293 340 329 306 354 76 38 47 42 38 47 49 1 337 332 327 317 299 142 147 151 153 154 157 174 164 187 181 165 158 135 127 138 126 125 138 126 115 117 112 117 112
242 224 341 325 336 50 313 316 45 53 44 44 29 32 24 349 314 316 313 301 150 150 149 154 158 164 182 165 187 183 163 157 131 128 141 130 137 146 117 130 119 119 120 118
4 31 287 298 6 17 352 25 38 34 32 29 29 21 6 332 308 289 274 270 193 155 150 158 164 172 184 164 187 181 162 145 135 152 131 135 148 147 132 147 141 144 152 141
5 358 325 319 5 18 16 7 0 17 22 24 10 9 0 333 321 284 251 237 266 157 156 165 170 174 188 165 190 177 159 151 149 165 143 146 156 182 155 171 169 163 146 147
1 1 351 358 338 335 6 1 355 357 359 24 359 5 353 349 348 335 276 225 248 181 163 167 173 176 187 173 189 170 157 157 152 160 151 151 164 199 174 63 129 168 165 163
45 290 303 317 299 314 347 345 350 342 341 354 21 0 359 353 345 348 328 283 234 249 164 165 174 178 187 178 186 163 159 162 167 172 168 166 157 134 42 79 102 98 102 167
316 327 277 290 302 320 313 314 358 310 339 348 9 1 4 350 348 314 307 240 283 226 193 167 174 182 184 186 180 165 167 164 173 192 174 174 186 163 141 67 50 69 70 108
329 347 342 342 309 306 328 317 325 330 3 358 353 4 0 351 352 350 346 340 295 260 218 179 173 182 183 191 176 169 172 168 180 202 171 197 181 184 172 162 166 131 32 89
343 310 297 324 355 358 346 331 326 340 5 352 354 5 353 343 350 353 348 338 328 265 248 207 180 181 183 191 176 172 174 176 193 184 196 187 184 193 191 171 177 170 126 88
331 334 353 5 358 5 353 344 340 337 342 337 346 355 341 340 338 355 354 349 339 330 305 224 211 174 183 189 175 174 176 192 186 187 207 180 201 189 199 181 175 178 165 162
15 10 11 12 12 356 2 356 357 2 352 347 347 333 336 343 339 353 356 347 326 315 327 345 319 187 187 181 174 176 176 191 192 223 191 197 193 197 199 197 183 185 183 173
29 16 19 9 4 17 16 359 355 354 334 326 317 328 330 340 339 350 344 330 1 14 15 354 15 346 318 178 173 179 183 186 190 202 219 202 193 207 197 202 204 191 189 167
79 86 48 53 41 25 30 10 354 354 345 337 331 328 328 321 333 347 340 334 24 10 359 349 351 344 337 333 176 184 187 193 187 197 218 205 189 197 207 203 208 207 198 153
67 65 37 52 57 46 36 26 9 5 357 351 340 339 342 335 342 334 339 319 45 15 351 4 357 10 357 17 350 238 193 195 195 191 201 227 203 198 202 207 207 209 205 163
58 57 17 51 44 48 59 52 29 18 23 13 12 4 353 347 341 334 330 351 29 3 353 348 29 8 354 345 321 301 238 203 211 188 197 203 226 197 203 206 205 216 210 197
25 57 51 28 60 50 41 45 35 32 26 27 18 11 360 355 353 345 344 37 356 14 349 344 9 8 346 332 319 307 289 242 209 235 191 198 206 223 203 207 216 205 214 210
358 35 35 34 48 46 56 21 34 36 41 31 23 18 10 1 353 352 342 345 343 353 338 330 357 349 346 329 322 303 298 305 277 254 268 203 202 209 220 205 208 224 205 212
42 16 25 29 56 20 40 43 40 32 56 50 18 28 16 7 359 359 341 336 345 338 321 332 323 305 315 313 311 310 309 303 320 275 264 278 214 211 204 229 206 204 222 205
125 57 33 37 48 15 12 30 35 28 27 50 42 19 14 25 18 344 345 347 341 342 331 311 315 286 278 290 288 298 304 309 333 333 317 329 262 204 212 205 223 214 203 215
129 143 95 82 65 45 16 29 358 47 18 13 29 33 17 8 18 5 358 358 354 345 344 331 331 325 327 300 288 291 287 297 301 307 326 323 328 332 340 24 202 168 238 297
105 312 115 84 66 64 29 18 35 31 35 6 19 31 16 11 16 10 10 7 2 358 351 344 338 339 353 331 340 290 275 241 258 274 313 311 322 312 330 333 282 244 249 250